Location: LDNL
(36.4545°S, 141.6685°E)
Time: 03:46:19
(UTC+11:00)

A-11 Canister half - Pass Details

Date: 13 August 2022
Orbit: 1524 x 1684 km, 47.3° (Epoch: 05 October)

Event Time Altitude Azimuth Distance (km) Brightness Sun altitude
Rises 14:42:45 0° 358° (N) 4,734 12.3 31.0°
Reaches altitude 10° 14:47:01 10° 14° (NNE) 3,732 11.7 30.5°
Maximum altitude 14:53:04 19° 55° (NE) 3,045 10.7 29.8°
Drops below altitude 10° 14:59:05 10° 96° (E) 3,706 10.7 29.0°
Sets 15:03:14 0° 112° (ESE) 4,690 11.1 28.5°
